Forest City, IA

11:05 PM CDT on June 28, 2017 (GMT -0500)
Forest City Municipal

Weather History for KFXY - November, 2012

Change the Weather History Date:

Sunday, November 11, 2012

  Actual Average Record
Temperature  
Mean Temperature 37 °F -  
Max Temperature 55 °F 42 °F 55 °F (2012)
Min Temperature 19 °F 24 °F 15 °F (2013)
Degree Days  
Heating Degree Days 28    
Moisture  
Dew Point 29 °F    
Average Humidity 80    
Maximum Humidity 94    
Minimum Humidity 64    
Precipitation  
Precipitation 0.12 in - - ()
Sea Level Pressure  
Sea Level Pressure 29.80 in    
Wind  
Wind Speed 12 mph (WNW)    
Max Wind Speed 20 mph    
Max Gust Speed 26 mph    
Visibility 9 miles    
Events Rain    
Averages and records for this station are not official NWS values.
T = Trace of Precipitation, MM = Missing Value Source: NWS Daily Summary

Daily Weather History Graph

Daily Weather History Graph

Search for Another Location

Airport or City:

Trip Planner

Search our weather history database for the weather conditions in past years. The results will help you decide how hot, cold, wet, or windy it might be!

Date:

Astronomy

Nov. 11, 2012 Rise Set
Actual Time 7:02 AM CST 4:53 PM CST
Civil Twilight 6:32 AM CST 5:24 PM CST
Nautical Twilight 5:58 AM CST 5:58 PM CST
Astronomical Twilight 5:24 AM CST 6:31 PM CST
Moon 4:14 AM CST (11/11) 3:20 PM CST (11/11)
Length of Visible Light 10h 51m
Length of Day
9h 50m
Waning Crescent, 7% of the Moon is Illuminated
Nov 11
Waning Crescent
Nov 13
New
Nov 20
First Quarter
Nov 28
Full
Dec 6
Last Quarter

Hourly Weather History & Observations

Time (CST) Temp. Windchill Dew Point Humidity Pressure Visibility Wind Dir Wind Speed Gust Speed Precip Events Conditions
12:15 AM 55.4 °F - 51.8 °F 88% 29.59 in 10.0 mi SSW 4.6 mph - 0.01 in   Overcast
12:35 AM 55.4 °F - 51.8 °F 88% 29.59 in 10.0 mi South 6.9 mph - 0.01 in   Mostly Cloudy
12:55 AM 55.4 °F - 51.8 °F 88% 29.60 in 10.0 mi South 5.8 mph - 0.01 in   Mostly Cloudy
1:15 AM 55.4 °F - 51.8 °F 88% 29.62 in 10.0 mi South 8.1 mph - N/A Rain Light Rain
1:35 AM 55.4 °F - 51.8 °F 88% 29.61 in 10.0 mi South 9.2 mph - N/A Rain Rain
1:55 AM 55.4 °F - 51.8 °F 88% 29.63 in 10.0 mi SSW 13.8 mph 18.4 mph 0.01 in Rain Light Rain
2:15 AM 55.4 °F - 51.8 °F 88% 29.60 in 10.0 mi SSW 9.2 mph - N/A Rain Light Rain
2:35 AM 53.6 °F - 51.8 °F 94% 29.60 in 10.0 mi WSW 8.1 mph - N/A   Overcast
2:55 AM 51.8 °F - 48.2 °F 88% 29.64 in 10.0 mi West 16.1 mph 19.6 mph N/A   Overcast
3:15 AM 50.0 °F - 46.4 °F 87% 29.64 in 10.0 mi WNW 9.2 mph - N/A   Drizzle
3:35 AM - - - N/A% 29.65 in 10.0 mi WNW 13.8 mph - N/A   Drizzle
3:55 AM 46.4 °F 42.4 °F 42.8 °F 87% 29.62 in 10.0 mi NNW 8.1 mph - 0.02 in Rain Light Rain
4:15 AM 44.6 °F 39.7 °F 42.8 °F 93% 29.65 in 10.0 mi WNW 9.2 mph - N/A   Overcast
4:35 AM 44.6 °F 40.7 °F 42.8 °F 93% 29.66 in 10.0 mi WNW 6.9 mph - N/A   Overcast
4:55 AM 44.6 °F 38.8 °F 42.8 °F 93% 29.67 in 7.0 mi NW 11.5 mph - N/A   Light Drizzle
5:15 AM 42.8 °F 35.4 °F 41.0 °F 93% 29.69 in 5.0 mi NW 15.0 mph - N/A Rain Light Rain
5:35 AM 41.0 °F 33.9 °F 37.4 °F 87% 29.68 in 5.0 mi NW 12.7 mph - 0.01 in Rain Light Rain
5:55 AM 37.4 °F 27.8 °F 35.6 °F 93% 29.71 in 4.0 mi NW 17.3 mph 25.3 mph 0.01 in Rain Light Rain
6:15 AM 37.4 °F 28.5 °F 35.6 °F 93% 29.72 in 5.0 mi NW 15.0 mph 20.7 mph N/A Rain Light Rain
6:35 AM - - - N/A% 29.72 in 2.5 mi NW 10.4 mph 16.1 mph 0.05 in Rain Light Rain
6:55 AM - - - N/A% 29.68 in 10.0 mi NNW 12.7 mph 16.1 mph 0.07 in Rain Light Rain
7:15 AM - - - N/A% 29.71 in 10.0 mi NW 15.0 mph 19.6 mph N/A   Overcast
7:35 AM - - - N/A% 29.76 in 4.0 mi NW 19.6 mph 25.3 mph N/A   Haze
7:55 AM - - - N/A% 29.76 in 10.0 mi NW 13.8 mph - N/A   Overcast
8:15 AM - - - N/A% 29.78 in 10.0 mi NW 18.4 mph 23.0 mph N/A   Overcast
8:55 AM - - - N/A% 29.74 in 4.0 mi NNW 15.0 mph 20.7 mph N/A   Overcast
9:35 AM - - - N/A% 29.78 in 5.0 mi NW 13.8 mph - N/A   Haze
9:55 AM - - - N/A% 29.80 in 3.0 mi NW 16.1 mph 23.0 mph N/A   Overcast
10:15 AM - - - N/A% 29.80 in 7.0 mi NW 17.3 mph 24.2 mph N/A   Overcast
10:35 AM 30.2 °F 19.8 °F 28.4 °F 93% 29.78 in 7.0 mi NW 13.8 mph 21.9 mph N/A   Overcast
10:55 AM 30.2 °F 20.8 °F 28.4 °F 93% 29.81 in 10.0 mi NW 11.5 mph - N/A   Overcast
11:15 AM 30.2 °F 18.9 °F 28.4 °F 93% 29.81 in 10.0 mi NW 16.1 mph - N/A   Overcast
11:35 AM 30.2 °F 18.5 °F 28.4 °F 93% 29.77 in 10.0 mi NW 17.3 mph 24.2 mph N/A   Overcast
11:55 AM - - - N/A% 29.79 in 10.0 mi NW 13.8 mph 19.6 mph N/A   Overcast
12:15 PM - - - N/A% 29.79 in 10.0 mi NW 13.8 mph 21.9 mph N/A   Overcast
12:35 PM - - - N/A% 29.80 in 10.0 mi NW 15.0 mph 20.7 mph N/A   Overcast
12:55 PM - - - N/A% 29.81 in 10.0 mi NW 17.3 mph 20.7 mph N/A   Overcast
1:15 PM 30.2 °F 18.5 °F 24.8 °F 80% 29.81 in 10.0 mi WNW 17.3 mph - N/A   Overcast
1:35 PM 30.2 °F 19.3 °F 26.6 °F 86% 29.80 in 10.0 mi NW 15.0 mph 19.6 mph N/A   Overcast
1:55 PM 30.2 °F 18.1 °F 26.6 °F 86% 29.80 in 10.0 mi WNW 18.4 mph 23.0 mph N/A   Overcast
2:15 PM 30.2 °F 19.3 °F 24.8 °F 80% 29.81 in 10.0 mi WNW 15.0 mph 23.0 mph N/A   Overcast
2:35 PM 30.2 °F 18.1 °F 23.0 °F 75% 29.81 in 10.0 mi WNW 18.4 mph 23.0 mph N/A   Overcast
2:55 PM - - - N/A% 29.82 in 10.0 mi NW 16.1 mph - N/A   Overcast
3:15 PM 30.2 °F 18.9 °F 23.0 °F 75% 29.84 in 10.0 mi WNW 16.1 mph 20.7 mph N/A   Overcast
3:35 PM 30.2 °F 19.8 °F 23.0 °F 75% 29.84 in 10.0 mi WNW 13.8 mph - N/A   Overcast
3:55 PM 30.2 °F 17.8 °F 23.0 °F 75% 29.85 in 10.0 mi WNW 19.6 mph 24.2 mph N/A   Overcast
4:15 PM 30.2 °F 18.9 °F 23.0 °F 75% 29.84 in 10.0 mi WNW 16.1 mph 24.2 mph N/A   Overcast
4:35 PM 30.2 °F 18.5 °F 21.2 °F 69% 29.86 in 10.0 mi WNW 17.3 mph 24.2 mph N/A   Mostly Cloudy
4:55 PM 28.4 °F 16.6 °F 21.2 °F 74% 29.88 in 10.0 mi WNW 16.1 mph - N/A   Mostly Cloudy
5:15 PM 28.4 °F 16.6 °F 19.4 °F 69% 29.89 in 10.0 mi WNW 16.1 mph 24.2 mph N/A   Overcast
5:35 PM 28.4 °F 17.5 °F 19.4 °F 69% 29.90 in 10.0 mi WNW 13.8 mph 18.4 mph N/A   Mostly Cloudy
5:55 PM 28.4 °F 16.2 °F 19.4 °F 69% 29.90 in 10.0 mi WNW 17.3 mph - N/A   Scattered Clouds
6:15 PM 26.6 °F 13.1 °F 19.4 °F 74% 29.92 in 10.0 mi West 19.6 mph 23.0 mph N/A   Mostly Cloudy
6:35 PM 26.6 °F 14.7 °F 19.4 °F 74% 29.93 in 10.0 mi West 15.0 mph 19.6 mph N/A   Overcast
6:55 PM 26.6 °F 15.7 °F 19.4 °F 74% 29.94 in 10.0 mi West 12.7 mph 18.4 mph N/A   Overcast
7:15 PM 26.6 °F 14.3 °F 17.6 °F 69% 29.94 in 10.0 mi WNW 16.1 mph 25.3 mph N/A   Overcast
7:35 PM 26.6 °F 13.1 °F 15.8 °F 64% 29.95 in 10.0 mi West 19.6 mph 26.5 mph N/A   Overcast
7:55 PM 24.8 °F 12.4 °F 17.6 °F 74% 29.96 in 10.0 mi West 15.0 mph 20.7 mph N/A   Overcast
8:15 PM 23.0 °F 9.2 °F 14.0 °F 68% 29.97 in 10.0 mi West 17.3 mph 24.2 mph N/A   Scattered Clouds
8:35 PM 23.0 °F 9.6 °F 14.0 °F 68% 29.98 in 10.0 mi WNW 16.1 mph 24.2 mph N/A   Clear
8:55 PM 23.0 °F 8.7 °F 14.0 °F 68% 29.98 in 10.0 mi WNW 18.4 mph 21.9 mph N/A   Clear
9:15 PM 23.0 °F 9.2 °F 14.0 °F 68% 29.99 in 10.0 mi WNW 17.3 mph - N/A   Clear
9:35 PM 21.2 °F 6.0 °F 14.0 °F 74% 29.99 in 10.0 mi West 19.6 mph 24.2 mph N/A   Clear
9:55 PM 21.2 °F 7.3 °F 12.2 °F 68% 29.99 in 10.0 mi West 16.1 mph - N/A   Clear
10:15 PM 21.2 °F 8.3 °F 12.2 °F 68% 30.01 in 10.0 mi West 13.8 mph - N/A   Clear
10:35 PM 21.2 °F 10.9 °F 12.2 °F 68% 30.01 in 10.0 mi West 9.2 mph - N/A   Scattered Clouds
11:15 PM 19.4 °F 8.6 °F 12.2 °F 74% 30.01 in 10.0 mi West 9.2 mph - N/A   Clear
11:35 PM 19.4 °F 8.6 °F 12.2 °F 74% 30.01 in 10.0 mi West 9.2 mph - N/A   Clear